(199749) = 2003 WN181 = 2006 JH14

Discovered at Mount Lemmon on 2006-05-04 by Mt. Lemmon Survey.

Orbit

Orbit type: Main Belt

Note: WebGL enabled browser required.

epoch2024-03-31.0
epoch JD2460400.5
perihelion date2020-02-26.27881
perihelion JD2458905.77881
argument of perihelion (°)196.65743
ascending node (°)27.25814
inclination (°)5.21193
eccentricity0.1014079
perihelion distance (AU)2.4845035
Tisserand w.r.t. Jupiter3.3
ΔV w.r.t. Earth (km/sec)10.0
semimajor axis (AU)2.7648848
mean anomaly (°)320.44130
mean daily motion (°/day)0.21438200
aphelion distance (AU)3.045
period (years)4.6
P-vector [x]-0.72090554
P-vector [y]-0.62503891
P-vector [z]-0.29936861
Q-vector [x]0.69178339
Q-vector [y]-0.62307164
Q-vector [z]-0.36498970
absolute magnitude16.45
phase slope0.15
uncertainty0
referenceMPEC 2024-F14
observations used344
oppositions15
arc length (days)7923
first opposition used2002
last opposition used2024
residual rms (arc-secs)0.76
perturbers coarse indicatorM-v
perturbers precise indicator003Ek
first observation date used2002-07-08.0
last observation date used2024-03-17.0
computer nameMPCLINUX
Minimum Orbit Intersection Distances (in AU)
for orbit epoch: 2460400.5, reference: E2024-GH2
Mercury2.02967
Venus1.76272
Earth1.47632
Mars0.88333
Jupiter1.92702
Saturn6.07499
Uranus15.7979
Neptune26.7845

Observations

355 total observations over interval: 2002 07 08.27320 – 2024 03 17.372384
These data are available for download (format description).

Date (UT) J2000 RA J2000 Dec Magn Location Ref
2002 07 08.27320 20 16 05.51 -28 20 07.7 20.6   644 – Palomar Mountain/NEAT MPS 173965
2002 07 08.34877 20 16 01.39 -28 20 25.2 20.2   644 – Palomar Mountain/NEAT MPS 173965
2002 07 08.41412 20 15 57.82 -28 20 39.2 19.9   644 – Palomar Mountain/NEAT MPS 173965
2003 09 27.42226 02 05 04.76 +12 10 01.4 21.7 V 691 – Steward Observatory, Kitt Peak-Spacewatch MPS 173610
2003 09 27.44911 02 05 03.72 +12 09 58.0 21.6 V 691 – Steward Observatory, Kitt Peak-Spacewatch MPS 173610
2003 09 27.48355 02 05 02.30 +12 09 53.6 21.5 V 691 – Steward Observatory, Kitt Peak-Spacewatch MPS 173610
2003 10 26.17582 01 41 37.55 +10 44 13.0 21.9 V 291 – LPL/Spacewatch II MPS 173610
2003 10 26.20086 01 41 36.20 +10 44 07.8 21.5 V 291 – LPL/Spacewatch II MPS 173610
2003 10 26.22464 01 41 34.93 +10 44 03.0 20.9 V 291 – LPL/Spacewatch II MPS 173610
2003 11 21.16472 01 22 44.24 +09 31 13.2 20.2 R 695 – Kitt Peak MPS 94834
2003 11 21.21385 01 22 42.68 +09 31 07.9   695 – Kitt Peak MPS 94834
2003 11 24.07883 01 21 21.10 +09 26 32.3 22.1 V 691 – Steward Observatory, Kitt Peak-Spacewatch MPS 94834
2003 11 24.10616 01 21 20.33 +09 26 29.6 21.8 V 691 – Steward Observatory, Kitt Peak-Spacewatch MPS 94834
2003 11 24.13797 01 21 19.43 +09 26 26.7 22.1 V 691 – Steward Observatory, Kitt Peak-Spacewatch MPS 94834
2004 12 10.45867 07 54 02.23 +28 09 29.6 21.1 V 691 – Steward Observatory, Kitt Peak-Spacewatch MPS 173610
2004 12 10.48925 07 54 01.29 +28 09 36.0 21.0 V 691 – Steward Observatory, Kitt Peak-Spacewatch MPS 173610
2004 12 10.52118 07 54 00.18 +28 09 41.7 21.3 V 691 – Steward Observatory, Kitt Peak-Spacewatch MPS 173610
2005 02 04.21683 07 04 36.40 +30 14 12.1 19.6 R G96 – Mt. Lemmon Survey MPS 173610
2005 02 04.22468 07 04 36.03 +30 14 12.4 19.6 R G96 – Mt. Lemmon Survey MPS 173610
2005 02 04.23257 07 04 35.68 +30 14 11.9 20.3 R G96 – Mt. Lemmon Survey MPS 173610
2005 02 04.24083 07 04 35.30 +30 14 11.4 20.0 R G96 – Mt. Lemmon Survey MPS 173610
2006 01 31.50092 14 38 09.13 -14 29 00.7 21.7 V 691 – Steward Observatory, Kitt Peak-Spacewatch MPS 173610
2006 01 31.51337 14 38 09.90 -14 29 05.1 21.3 V 691 – Steward Observatory, Kitt Peak-Spacewatch MPS 173610
2006 01 31.52582 14 38 10.66 -14 29 09.8 21.7 V 691 – Steward Observatory, Kitt Peak-Spacewatch MPS 173610
2006 04 02.41938 15 00 46.29 -18 05 49.2 20.4 V 691 – Steward Observatory, Kitt Peak-Spacewatch MPS 173610
2006 04 02.43474 15 00 45.83 -18 05 49.6 20.2 V 691 – Steward Observatory, Kitt Peak-Spacewatch MPS 173610
2006 04 02.44969 15 00 45.42 -18 05 50.5 20.2 V 691 – Steward Observatory, Kitt Peak-Spacewatch MPS 173610
2006 05 04.30171 14 36 26.67 -17 43 20.7 19.5 V G96 – Mt. Lemmon Survey MPS 171445
2006 05 04.30733 14 36 26.35 -17 43 20.1 19.6 V G96 – Mt. Lemmon Survey MPS 171445
2006 05 04.31294 14 36 26.02 -17 43 19.0 19.5 V G96 – Mt. Lemmon Survey MPS 171445
2006 05 04.31856 14 36 25.70 -17 43 18.9 19.3 V G96 – Mt. Lemmon Survey MPS 171445
2006 05 05.26776 14 35 33.21 -17 41 33.6 18.8 R 699 – Lowell Observatory-LONEOS MPS 171445
2006 05 05.28602 14 35 32.10 -17 41 31.0   699 – Lowell Observatory-LONEOS MPS 171445
2006 05 05.30431 14 35 31.13 -17 41 28.7   699 – Lowell Observatory-LONEOS MPS 171445
2006 05 05.32259 14 35 30.03 -17 41 27.4   699 – Lowell Observatory-LONEOS MPS 171445
2006 05 25.237136 14 19 12.386 -17 04 21.63 20.01 V 645 – Apache Point-Sloan Digital Sky Survey MPS 390242
2006 05 25.240608 14 19 12.246 -17 04 21.30 20.81   645 – Apache Point-Sloan Digital Sky Survey MPS 390242
2006 05 26.240036 14 18 33.958 -17 02 49.84 20.34 V 645 – Apache Point-Sloan Digital Sky Survey MPS 390242
2006 05 26.243508 14 18 33.818 -17 02 49.67 21.24   645 – Apache Point-Sloan Digital Sky Survey MPS 390242
2006 05 31.24530 14 15 43.92 -16 56 16.5 20.1 V G96 – Mt. Lemmon Survey MPS 172911
2006 05 31.25200 14 15 43.66 -16 56 15.9 20.2 V G96 – Mt. Lemmon Survey MPS 172911
2006 05 31.25881 14 15 43.45 -16 56 15.2 20.1 V G96 – Mt. Lemmon Survey MPS 172911
2006 05 31.26557 14 15 43.23 -16 56 15.0 19.9 V G96 – Mt. Lemmon Survey MPS 172911
2006 06 01.21395 14 15 15.40 -16 55 14.0 19.9 V G96 – Mt. Lemmon Survey MPS 172911
2006 06 01.22007 14 15 15.22 -16 55 13.7 19.9 V G96 – Mt. Lemmon Survey MPS 172911
2006 06 01.22609 14 15 15.04 -16 55 13.4 19.7 V G96 – Mt. Lemmon Survey MPS 172911
2006 06 01.23208 14 15 14.86 -16 55 13.0 19.9 V G96 – Mt. Lemmon Survey MPS 172911
2007 09 11.23427 22 40 06.40 -14 45 51.1 20.5 V 691 – Steward Observatory, Kitt Peak-Spacewatch MPS 215176
2007 09 11.25191 22 40 05.49 -14 45 54.1 20.7 V 691 – Steward Observatory, Kitt Peak-Spacewatch MPS 215176
2007 09 11.27298 22 40 04.39 -14 45 58.3 20.4 V 691 – Steward Observatory, Kitt Peak-Spacewatch MPS 215176
2008 10 24.34705 04 09 45.17 +24 24 13.8 20.9 V 691 – Steward Observatory, Kitt Peak-Spacewatch MPS 261618
2008 10 24.36279 04 09 44.55 +24 24 14.5 21.0 V 691 – Steward Observatory, Kitt Peak-Spacewatch MPS 261618
2008 10 24.38239 04 09 43.79 +24 24 14.9 21.2 V 691 – Steward Observatory, Kitt Peak-Spacewatch MPS 261618
2008 10 28.33010 04 07 03.65 +24 24 57.0 21.0 V 691 – Steward Observatory, Kitt Peak-Spacewatch MPS 261618
2008 10 28.34781 04 07 02.86 +24 24 56.8 20.8 V 691 – Steward Observatory, Kitt Peak-Spacewatch MPS 261618
2008 10 28.36553 04 07 02.07 +24 24 56.8 20.7 V 691 – Steward Observatory, Kitt Peak-Spacewatch MPS 261618
2008 11 03.567145 04 02 11.742 +24 23 31.29 20.35 r F51 – Pan-STARRS 1, Haleakala MPS 288977
2008 11 03.578572 04 02 11.127 +24 23 31.39 20.68 r F51 – Pan-STARRS 1, Haleakala MPS 288977
2008 11 17.38845 03 49 27.97 +24 09 14.1   291 – LPL/Spacewatch II MPS 266346
2008 11 17.39265 03 49 27.72 +24 09 13.8   291 – LPL/Spacewatch II MPS 266346
2008 11 17.39674 03 49 27.48 +24 09 13.4   291 – LPL/Spacewatch II MPS 266346
2010 02 16.41733 10 18 10.47 +18 07 52.8 19.7 V G96 – Mt. Lemmon Survey MPS 316475
2010 02 16.42510 10 18 10.04 +18 07 55.0 19.9 V G96 – Mt. Lemmon Survey MPS 316475
2010 02 16.43300 10 18 09.61 +18 07 57.2 19.8 V G96 – Mt. Lemmon Survey MPS 316475
2010 02 16.44079 10 18 09.14 +18 07 59.0 19.8 V G96 – Mt. Lemmon Survey MPS 316475
2010 02 19.29082 10 15 31.57 +18 19 52.2 20.1   704 – Lincoln Laboratory ETS, New Mexico MPS 316475
2010 02 19.30289 10 15 30.94 +18 19 56.3 20.7   704 – Lincoln Laboratory ETS, New Mexico MPS 316475
2010 02 19.31498 10 15 30.30 +18 19 58.3 20.6   704 – Lincoln Laboratory ETS, New Mexico MPS 316475
2010 02 19.32707 10 15 29.62 +18 20 01.7 20.0   704 – Lincoln Laboratory ETS, New Mexico MPS 316475
2010 02 20.339996 10 14 33.211 +18 24 03.84 19.87 r F51 – Pan-STARRS 1, Haleakala MPS 320512
2010 02 20.350591 10 14 32.618 +18 24 06.36 20.05 r F51 – Pan-STARRS 1, Haleakala MPS 320512
2010 02 24.332827 10 10 50.413 +18 39 04.82 19.99 i F51 – Pan-STARRS 1, Haleakala MPS 320512
2010 02 24.343749 10 10 49.791 +18 39 07.29 19.86 i F51 – Pan-STARRS 1, Haleakala MPS 320512
2012 09 17.25048 01 04 13.66 +04 12 38.9 21.2 V 691 – Steward Observatory, Kitt Peak-Spacewatch MPS 433062
2012 09 17.26820 01 04 12.90 +04 12 34.6 20.5 V 691 – Steward Observatory, Kitt Peak-Spacewatch MPS 433062
2012 09 17.28594 01 04 12.09 +04 12 31.2 20.9 V 691 – Steward Observatory, Kitt Peak-Spacewatch MPS 433062
2012 10 15.334809 00 41 06.817 +02 28 46.76 20.7 w F51 – Pan-STARRS 1, Haleakala MPS 437413
2012 10 15.353976 00 41 05.855 +02 28 43.01 20.5 w F51 – Pan-STARRS 1, Haleakala MPS 437413
2012 10 15.368494 00 41 05.121 +02 28 39.99 20.5 w F51 – Pan-STARRS 1, Haleakala MPS 437413
2012 10 15.383116 00 41 04.384 +02 28 36.89 20.5 w F51 – Pan-STARRS 1, Haleakala MPS 437413
2012 11 05.281226 00 27 04.667 +01 36 27.71 21.1 w F51 – Pan-STARRS 1, Haleakala MPS 441211
2012 11 05.296371 00 27 04.192 +01 36 26.55 21.2 w F51 – Pan-STARRS 1, Haleakala MPS 441211
2012 11 05.311455 00 27 03.727 +01 36 25.20 21.3 w F51 – Pan-STARRS 1, Haleakala MPS 441211
2012 11 05.326526 00 27 03.276 +01 36 24.04 21.0 w F51 – Pan-STARRS 1, Haleakala MPS 441211
2015 01 23.59846 13 19 43.660 -05 09 42.73 21.4 w F51 – Pan-STARRS 1, Haleakala MPS 569002
2015 01 23.61011 13 19 44.103 -05 09 45.83 21.2 w F51 – Pan-STARRS 1, Haleakala MPS 569002
2015 01 23.62174 13 19 44.550 -05 09 48.75 21.1 w F51 – Pan-STARRS 1, Haleakala MPS 569002
2015 01 23.63333 13 19 44.986 -05 09 51.89 20.9 w F51 – Pan-STARRS 1, Haleakala MPS 569002
2015 03 16.39989 13 21 58.44 -06 09 51.3 19.8 r G45 – Space Surveillance Telescope, Atom Site MPS 597188
